Terminal Aerodrome Forecast
Issued by NWS Norman, OK

Home | Current Version | Previous Version | Text Only | Print | Product List | Glossary On
Versions: 1 2 3 4 5 6 7 8 9 10 11 12 13 14 15 16 17 18 19 20 21 22 23 24
000
FTUS44 KOUN 011139
TAFSPS
TAF
KSPS 011139Z 0112/0212 29010KT 5SM BR OVC005
     FM011300 33014KT P6SM OVC025
     FM011700 35022G32KT P6SM SCT030
     FM020000 36015G22KT P6SM SKC
     FM020700 35010KT P6SM SKC=

USA.gov is the U.S. government's official web portal to all federal, state and local government web resources and services.